User: anonymous   Login
Location: Zlin
(49.2330°N, 17.6670°E)
Time: 14:46:12
(UTC+02:00)
Language:

ISS - Orbit

View from above orbital plane
View from above orbital plane
View from above satellite
View from above satellite

Ground track
Ground track

The orbit data is extracted from the following two-line orbital elements,

1 25544U 98067A   15182.04118924  .00006555  00000-0  10124-3 0  9998
2 25544 051.6456 014.8408 0003294 115.1120 023.4999 15.55457344950196
Epoch (UTC): 01 July 2015 00:59:18
Eccentricity: 0.0003294
inclination: 51.6456°
perigee height: 398 km
apogee height: 403 km
right ascension of ascending node: 14.8408°
argument of perigee: 115.1120°
revolutions per day: 15.55457344
mean anomaly at epoch: 23.4999°
orbit number at epoch: 95019

The dashed part of the orbit path shows where the satellite is in the earth's shadow,  

DLR